Regional Weather Roundup
Issued by NWS Mobile, AL

Home | Current Version | Previous Version | Text Only | Print | Product List | Glossary On
Versions: 1 2 3 4 5 6 7 8 9 10 11 12 13 14 15 16 17 18 19 20 21 22 23 24 25 26 27 28 29 30 31 32 33 34 35 36 37 38 39 40 41 42 43 44 45 46 47 48 49 50
000
ASUS44 KMOB 250010
RWRMOB
REGIONAL WEATHER ROUNDUP
NATIONAL WEATHER SERVICE MOBILE AL
700 PM CDT THU JUL 24 2014

NOTE: "FAIR" INDICATES FEW OR NO CLOUDS BELOW 12,000 FEET WITH NO
      SIGNIFICANT WEATHER AND/OR OBSTRUCTIONS TO VISIBILITY.

  * THESE STATIONS ARE PART OF THE UNIVERSITY OF SOUTH ALABAMA
    MESONET AND ARE NOT UNDER NWS OR FAA QUALITY CONTROL.

ALZ061>064-250100-
COASTAL ALABAMA

CITY           SKY/WX    TMP DP  RH WIND       PRES   REMARKS
MOBILE REG APT PTCLDY    82  74  76 S8        29.95R
6HR MIN TEMP:  74; 6HR MAX TEMP:  85; 6HR PCP:  0.67;

BROOKLEY FIELD CLEAR     84  72  67 VRB7      29.95S
6HR MIN TEMP:  82; 6HR MAX TEMP:  87; 6HR PCP: TRACE;

USA CAMPUS*      N/A     81  75  83 CALM      29.92R
DOG RIVER*       N/A     84  72  65 SW7       29.95R


CITY           SKY/WX    TMP DP  RH WIND       PRES   REMARKS
MOUNT VERNON*    N/A     84  72  65 CALM      29.93S
SARALAND*      NOT AVBL
BAY MINETTE*   NOT AVBL
LOXLEY*          N/A     82  70  65 SW6       29.94S
ROBERTSDALE*     N/A     82  72  69 SW6       29.94S
FAIRHOPE*        N/A     82  73  74 SW9       29.93S
ELBERTA*         N/A     84  72  65 SW5       29.94S
FOLEY*         NOT AVBL
GRAND BAY*       N/A     84  73  70 S3        29.92S
DAUPHIN ISLND* NOT AVBL
BON SCOUR NWR* NOT AVBL
GULF SHORES    CLEAR     83  74  74 SW7       29.95R

$$

ALZ051>060-250100-
INTERIOR SOUTHWEST AND SOUTH CENTRAL ALABAMA

CITY           SKY/WX    TMP DP  RH WIND       PRES   REMARKS
GREENVILLE     PTCLDY    85  70  60 SW3       29.94
6HR MIN TEMP:  85; 6HR MAX TEMP:  91;

EVERGREEN      CLEAR     86  71  60 SW8       29.95R
6HR MIN TEMP:  86; 6HR MAX TEMP:  93;

CASTLEBERRY*   NOT AVBL
ATMORE*          N/A     84  73  70 W8        29.96R
DIXIE*         NOT AVBL
ANDALUSIA/OPP  PTCLDY    88  72  58 W5        29.95R
6HR MIN TEMP:  85; 6HR MAX TEMP:  96; 6HR PCP: TRACE;

ANDALUSIA*     NOT AVBL
FLORALA APT    PTCLDY    84  71  65 CALM      29.97S
6HR MIN TEMP:  84; 6HR MAX TEMP:  91; 6HR PCP: TRACE;

FLORALA*         N/A     84  72  65 CALM      29.92R

$$

FLZ001>006-250100-
WESTERN FLORIDA PANHANDLE

CITY           SKY/WX    TMP DP  RH WIND       PRES   REMARKS
PENSACOLA      CLEAR     82  70  66 SW9       29.95R
6HR MIN TEMP:  82; 6HR MAX TEMP:  86;

NAS PENSACOLA  MOCLDY    83  72  69 SW10      29.95R
6HR MIN TEMP:  83; 6HR MAX TEMP:  87;

MILTON         MOCLDY    81  74  79 SE6       29.95S
6HR MIN TEMP:  76; 6HR MAX TEMP:  88; 6HR PCP:  0.02;

WHTNG S FIELD  PTCLDY    84  73  69 S7        29.95R
6HR MIN TEMP:  78; 6HR MAX TEMP:  90; 6HR PCP:  0.06;



CITY           SKY/WX    TMP DP  RH WIND       PRES   REMARKS
WALNUT HILL*   NOT AVBL
JAY*           NOT AVBL
DUKE FIELD     PTCLDY    85  78  80 S8        29.95S HX  95
CRESTVIEW      PTCLDY    84  73  69 S7        29.97R
6HR MIN TEMP:  82; 6HR MAX TEMP:  90; 6HR PCP: TRACE;

VALPARAISO     PTCLDY    84  74  71 SW9       29.96R
6HR MIN TEMP:  84; 6HR MAX TEMP:  87; 6HR PCP: TRACE;

DESTIN         CLEAR     85  75  72 VRB6      29.95F
6HR MIN TEMP:  84; 6HR MAX TEMP:  88;


$$

MSZ076-079-250100-
INTERIOR SOUTHEAST MISSISSIPPI

CITY           SKY/WX    TMP DP  RH WIND       PRES   REMARKS
LEAKESVILLE*     N/A     84  70  61 CALM        N/A
AGRICOLA*      NOT AVBL

$$

MARINE OBSERVATIONS

STATION/POSITION TIME  TEMP    WIND        PRES    WAVE
                       AIR SEA DIR/SP/G            HT/PER
                 (UTC) (F)     (DEG/KT/KT) (MB)    (FT/S)
PASCAGOULA       0000   83     190/  7/ 10 1013.7R
PETIT BOIS ISLND 0000   83     190/  8/  9 1014.2R
GRAND BAY        2300   84     210/  8     1015.0S
KATRINA CUT      2300   83     210/  7     1014.6F
CEDAR POINT      2300   82     220/  8     1013.9F
E DAUPHIN ISLAND 2300   83     180/  5/  6 1013.9F
MIDDLE BAY LIGHT 2300   83     200/ 12     1013.2F
USCG MOBILE BAY  0000   85 83  220/  5/  7 1012.7R
STATE DOCKS      0000   87 85              1013.5R
MEAHER PARK      2300   84     180/ 11     1012.9F
WEEKS BAY        2300   85                   N/A
FORT MORGAN      0000   83     210/  9/ 10 1013.6F
12 S ORANGE BCH  0000   83 84  200/  6/  6 1014.3S   1/ 4
PENSACOLA BAY    0000   87 88  230/  8/ 12 1014.5R
64 S DAUPHIN ISL 2231   84 87  210/ 10/ 12 1014.5F
67 S FORT MORGAN 2300   83                 1014.2F

$$

SELECTED LOCATIONS ACROSS THE REGION

CITY           SKY/WX    TMP DP  RH WIND       PRES   REMARKS
NEW ORLEANS    MOSUNNY   86  75  69 S6        29.93S HX  95
GULFPORT       MOSUNNY   87  73  62 SW5       29.93S
PASCAGOULA AP  CLEAR     83  72  69 S8        29.94R
PASCAGOULA*      N/A     82  73  74 CALM      29.93S
HATTIESBURG    SUNNY     88  70  55 CALM      29.93R
LAUREL         SUNNY     88  72  58 W5        29.96R
MERIDIAN       PTSUNNY   79  74  84 N5        29.94F
JACKSON        MOSUNNY   87  72  60 N9        29.94R
MONTGOMERY     PTCLDY    85  73  67 NW6       29.94R
TROY           CLEAR     86  71  60 CALM      29.95R
KINSTON*       NOT AVBL
GENEVA*          N/A     82  72  69 CALM      29.97S
ASHFORD*       NOT AVBL
DOTHAN         MOCLDY    80  74  81 SW6       29.99S
PANAMA CITY    CLEAR     84  72  67 S9        29.96R

$$



USA.gov is the U.S. government's official web portal to all federal, state and local government web resources and services.